Weather History for West Palm Beach, FL

Change the Weather History Date:

Saturday, March 29, 2014

  Actual Average Record
Temperature  
Mean Temperature 76 °F 72 °F  
Max Temperature 83 °F 80 °F 92 °F (1909)
Min Temperature 69 °F 64 °F 49 °F (1955)
Degree Days  
Heating Degree Days 0 0  
Month to date heating degree days 7 22  
Since 1 July heating degree days 122 227  
Cooling Degree Days 11 7  
Month to date cooling degree days 195 179  
Year to date cooling degree days 541 414  
Growing Degree Days 26 (Base 50)    
Moisture  
Dew Point 69 °F    
Average Humidity 77    
Maximum Humidity 84    
Minimum Humidity 69    
Precipitation  
Precipitation 0.69 in 0.14 in 5.15 in (1982)
Month to date precipitation 2.40 4.28  
Year to date precipitation 13.88 10.23  
Snow  
Snow 0.00 in - - ()
Month to date snowfall 0.0  
Since 1 July snowfall 0.0  
Snow Depth 0.00 in    
Sea Level Pressure  
Sea Level Pressure 29.99 in    
Wind  
Wind Speed 12 mph (SSW)    
Max Wind Speed 29 mph    
Max Gust Speed 35 mph    
Visibility 9 miles    
Events Rain , Thunderstorm    
T = Trace of Precipitation, MM = Missing Value Source: NWS Daily Summary

Daily Weather History Graph

Daily Weather History Graph

Search for Another Location

Airport:

Trip Planner

Search our weather history database for the weather conditions in past years. The results will help you decide how hot, cold, wet, or windy it might be!

Date:

Astronomy

Mar. 29, 2014 Rise Set
Actual Time 7:14 AM EDT 7:36 PM EDT
Civil Twilight 6:51 AM EDT 7:59 PM EDT
Nautical Twilight 6:24 AM EDT 8:26 PM EDT
Astronomical Twilight 5:56 AM EDT 8:54 PM EDT
Moon 6:15 AM EDT (3/29) 6:42 PM EDT (3/29)
Length of Visible Light 13h 08m
Length of Day
12h 21m
Waning Crescent, 2% of the Moon is Illuminated
Mar 29
Waning Crescent
Mar 30
New
Apr 7
First Quarter
Apr 15
Full
Apr 22
Last Quarter

Hourly Weather History & Observations

Time (EDT) Temp. Heat Index Dew Point Humidity Pressure Visibility Wind Dir Wind Speed Gust Speed Precip Events Conditions
12:53 AM 75.9 °F - 68.0 °F 76% 30.07 in 10.0 mi SSE 13.8 mph - N/A   Mostly Cloudy
1:53 AM 75.9 °F - 68.0 °F 76% 30.05 in 10.0 mi SSE 17.3 mph - N/A   Mostly Cloudy
2:53 AM 75.9 °F - 69.1 °F 79% 30.03 in 10.0 mi SSE 12.7 mph 24.2 mph N/A   Mostly Cloudy
3:00 AM 75.9 °F - 69.1 °F 79% 30.03 in 10.0 mi SSE 10.4 mph - N/A   Mostly Cloudy
3:53 AM 75.9 °F - 69.1 °F 79% 30.01 in 10.0 mi SSE 15.0 mph - N/A   Mostly Cloudy
4:00 AM 75.9 °F - 69.1 °F 79% 30.01 in 10.0 mi SSE 12.7 mph 21.9 mph N/A   Mostly Cloudy
4:17 AM 75.9 °F - 70.0 °F 82% 30.01 in 10.0 mi SSE 16.1 mph 21.9 mph N/A   Mostly Cloudy
4:53 AM 75.9 °F - 70.0 °F 82% 30.01 in 10.0 mi SSE 11.5 mph - N/A   Mostly Cloudy
5:53 AM 75.9 °F - 70.0 °F 82% 30.01 in 10.0 mi SSE 10.4 mph 20.7 mph N/A   Mostly Cloudy
6:53 AM 75.9 °F - 70.0 °F 82% 30.04 in 10.0 mi South 11.5 mph - N/A   Mostly Cloudy
7:53 AM 75.9 °F - 71.1 °F 85% 30.06 in 7.0 mi South 10.4 mph - 0.00 in Rain Light Rain
8:42 AM 75.9 °F - 71.1 °F 85% 30.04 in 7.0 mi SSE 11.5 mph - 0.00 in   Mostly Cloudy
8:53 AM 75.9 °F - 71.1 °F 85% 30.04 in 7.0 mi South 11.5 mph - 0.00 in   Mostly Cloudy
9:24 AM 77.0 °F - 72.0 °F 84% 30.04 in 7.0 mi South 17.3 mph 24.2 mph N/A   Mostly Cloudy
9:53 AM 78.1 °F - 72.0 °F 81% 30.01 in 7.0 mi South 18.4 mph 25.3 mph N/A   Mostly Cloudy
10:19 AM 79.0 °F - 72.0 °F 79% 30.01 in 7.0 mi South 15.0 mph 29.9 mph N/A   Mostly Cloudy
10:53 AM 80.1 °F 83.6 °F 71.1 °F 74% 30.00 in 8.0 mi South 17.3 mph 25.3 mph N/A   Mostly Cloudy
11:53 AM 81.0 °F 84.9 °F 71.1 °F 72% 30.00 in 10.0 mi SSE 17.3 mph 24.2 mph N/A   Mostly Cloudy
12:53 PM 80.1 °F 83.8 °F 72.0 °F 76% 30.00 in 10.0 mi South 15.0 mph - N/A   Mostly Cloudy
1:53 PM 82.0 °F 86.3 °F 71.1 °F 69% 29.98 in 10.0 mi South 12.7 mph - N/A   Mostly Cloudy
2:53 PM 82.0 °F 86.3 °F 71.1 °F 69% 29.96 in 10.0 mi South 12.7 mph - N/A   Mostly Cloudy
3:53 PM 82.0 °F 86.7 °F 72.0 °F 71% 29.96 in 10.0 mi SSW 6.9 mph - N/A   Mostly Cloudy
4:33 PM 82.9 °F 87.5 °F 71.1 °F 67% 29.95 in 10.0 mi SW 12.7 mph - N/A   Overcast
4:53 PM 82.9 °F 87.5 °F 71.1 °F 67% 29.95 in 10.0 mi SSW 10.4 mph - N/A   Overcast
5:40 PM 82.0 °F 86.3 °F 71.1 °F 69% 29.93 in 10.0 mi SSW 10.4 mph - N/A Thunderstorm Thunderstorm
5:53 PM 82.0 °F 86.3 °F 71.1 °F 69% 29.92 in 10.0 mi SW 9.2 mph - N/A Thunderstorm Thunderstorm
6:00 PM 82.0 °F 86.3 °F 71.1 °F 69% 29.92 in 10.0 mi SW 12.7 mph - N/A Thunderstorm Thunderstorm
6:08 PM 79.0 °F - 71.1 °F 77% 29.95 in 1.0 mi West 28.8 mph 35.7 mph 0.00 in Rain , Thunderstorm Heavy Thunderstorms and Rain
6:21 PM 71.1 °F - 64.9 °F 81% 29.96 in 0.8 mi WSW 18.4 mph - 0.20 in Rain , Thunderstorm Heavy Thunderstorms and Rain
6:33 PM 71.1 °F - 66.9 °F 87% 29.94 in 3.0 mi South 10.4 mph 31.1 mph 0.54 in Rain , Thunderstorm Heavy Thunderstorms and Rain
6:53 PM 73.0 °F - 66.9 °F 81% 29.96 in 10.0 mi SSW 13.8 mph - 0.60 in Rain , Thunderstorm Light Thunderstorms and Rain
7:21 PM 72.0 °F - 68.0 °F 87% 29.97 in 10.0 mi NW 5.8 mph - 0.00 in Rain Light Rain
7:53 PM 72.0 °F - 68.0 °F 87% 29.98 in 10.0 mi West 13.8 mph 26.5 mph 0.04 in Rain Light Rain
8:36 PM 70.0 °F - 63.0 °F 78% 29.91 in 10.0 mi SW 11.5 mph - 0.05 in   Mostly Cloudy
8:53 PM 71.1 °F - 63.0 °F 75% 29.93 in 10.0 mi WSW 8.1 mph - 0.05 in   Overcast
9:53 PM 70.0 °F - 64.0 °F 81% 29.94 in 10.0 mi SW 6.9 mph - N/A   Overcast
10:53 PM 71.1 °F - 63.0 °F 75% 29.94 in 10.0 mi WSW 15.0 mph - N/A   Mostly Cloudy
11:53 PM 70.0 °F - 64.0 °F 81% 29.93 in 10.0 mi WSW 9.2 mph - N/A   Scattered Clouds